Flag for Guadeloupe Weather past 2 weeks in Pointe-à-Pitre, Guadeloupe

Now
81 °F

Passing clouds.


Feels Like: 85 °F
Forecast: 78 / 87 °F
Wind: 3 mph from North

Location: Le Raizet - Guadeloupe

Current Time: Aug 29, 2014 at 9:14:18 PM

Latest Report: Aug 29, 2014 at 8:30 PM


Visibility: N/A

Pressure: 30.01 "Hg

Humidity: 79%

Dew point: 73 °F

Location of Pointe-à-PitreLocation

Historic Weather in Pointe-à-Pitre — Graph

°F

Pointe-à-Pitre temperature yesterday

Maximum temperature yesterday: 86 °F (at 10:30 AM)
Minimum temperature yesterday: 75 °F (at 5:30 AM)
Average temperature yesterday: 81 °F

Past Weeks' High & Low Weather Summary

 TemperatureHumidityPressure
High90 °F (Aug 19, 12:00 PM)94% (Aug 16, 6:30 AM)30.07 "Hg (Aug 16, 6:30 AM)
Low72 °F (Aug 24, 4:30 AM)52% (Aug 17, 2:00 PM)29.83 "Hg (Aug 21, 3:30 PM)
Average81 °F76%29.95 "Hg
* Reported Aug 14 7:00 PM — Aug 29 7:30 PM, Pointe-à-Pitre, Weather by CustomWeather, © 2014

Note: Actual official high and low records may vary slightly from our data, if they occured in-between our weather recording intervals... More about our weather records

Advertising

Pointe-à-Pitre weather history for previous 24 hours

 ConditionsComfort  
Time TempWeatherWind HumidityBarometerVisibility
7:30 PM
Aug 29
81 °FClear.2 mph79%30.01 "HgN/A
7:00 PM81 °FPassing clouds.3 mph79%29.98 "HgN/A
6:30 PM82 °FPassing clouds.6 mph70%29.98 "HgN/A
6:00 PM82 °FScattered clouds.7 mph74%29.98 "HgN/A
5:30 PM84 °FScattered clouds.9 mph66%29.95 "HgN/A
5:00 PM84 °FScattered clouds.8 mph66%29.95 "HgN/A
3:00 PM88 °FScattered clouds.9 mph62%29.95 "HgN/A
2:30 PM88 °FScattered clouds.10 mph62%29.95 "HgN/A
2:00 PM88 °FScattered clouds.10 mph62%29.98 "HgN/A
1:30 PM88 °FScattered clouds.7 mph59%29.98 "HgN/A
1:00 PM88 °FScattered clouds.7 mph62%29.98 "HgN/A
12:00 PM81 °FSprinkles. Scattered clouds.7 mph84%30.01 "HgN/A
11:30 AM86 °FScattered clouds.8 mph66%30.01 "HgN/A
11:00 AM88 °FScattered clouds.8 mph59%30.01 "HgN/A
10:30 AM86 °FScattered clouds.7 mph62%30.01 "HgN/A
10:00 AM86 °FScattered clouds.6 mph66%30.01 "HgN/A
9:30 AM86 °FScattered clouds.5 mph62%30.04 "HgN/A
9:00 AM86 °FScattered clouds.2 mph66%30.01 "HgN/A
8:30 AM82 °FScattered clouds.5 mph74%30.01 "HgN/A
8:00 AM81 °FPartly sunny.5 mph79%30.01 "HgN/A
7:30 AM81 °FPartly sunny.2 mph79%30.01 "HgN/A
7:00 AM77 °FPassing clouds.No wind94%30.01 "HgN/A
6:30 AM75 °FPassing clouds.No wind94%30.01 "HgN/A
6:00 AM75 °FClear.No wind94%30.01 "HgN/A
5:30 AM75 °FPartly cloudy.No wind94%29.98 "HgN/A
5:00 AM75 °FClear.No wind94%29.98 "HgN/A
4:30 AM75 °FPassing clouds.No wind94%29.98 "HgN/A
4:00 AM77 °FClear.No wind89%29.98 "HgN/A
3:30 AM77 °FMostly cloudy.No wind89%29.98 "HgN/A
3:00 AM77 °FPartly cloudy.No wind89%29.98 "HgN/A
2:30 AM77 °FPartly cloudy.1 mph89%29.98 "HgN/A
2:00 AM77 °FClear.No wind89%29.98 "HgN/A
1:30 AM77 °FClear.No wind89%30.01 "HgN/A
1:00 AM77 °FClear.2 mph89%30.01 "HgN/A
12:30 AM77 °FClear.No wind89%30.01 "HgN/A
12:00 AM77 °FClear.No wind89%30.01 "HgN/A
11:30 PM
Aug 28
77 °FClear.No wind89%30.01 "HgN/A
11:00 PM77 °FClear.2 mph89%30.01 "HgN/A
10:30 PM79 °FClear.2 mph84%30.01 "HgN/A
10:00 PM79 °FClear.2 mph84%30.01 "HgN/A
9:30 PM79 °FClear.2 mph84%30.01 "HgN/A
9:00 PM79 °FPassing clouds.2 mph84%30.01 "HgN/A
Weather by CustomWeather, © 2014

See weather overviewHow to use our weather pages